Current Version              Previous Version:    01  02  03  04  05  06  07  08  09  10  11  12  13  14  15  16  17  18  19  20  21  22  23  24  25  26  27  28  29  30  
   31  32  33  34  35  36  37  38  39  40  41  42  43  44  45  46  47  48  49  50  51  52  53  54  55  56  57  58  59  60  

[Printable]
238
ASUS44 KLUB 251510
RWRTX
WEST TEXAS WEATHER ROUNDUP
NATIONAL WEATHER SERVICE LUBBOCK TX
1000 AM CDT SAT OCT 25 2014

NOTE: "FAIR" INDICATES FEW OR NO CLOUDS BELOW 12,000 FEET WITH NO
SIGNIFICANT WEATHER AND/OR OBSTRUCTIONS TO VISIBILITY.

TXZ004-006>008-010-012-014-016-OKZ002-251600-
TEXAS PANHANDLE/OKLAHOMA PANHANDLE

CITY           SKY/WX    TMP DP  RH WIND       PRES   REMARKS
AMARILLO       SUNNY     65  51  60 SW15      30.19R
BORGER         SUNNY     64  48  56 CALM      30.16R
CANADIAN       SUNNY     57  53  86 CALM      30.13R
DALHART        SUNNY     58  43  57 SW3       30.20R
DUMAS            N/A     65  50  58 SW9       30.18R
GUYMON         SUNNY     62  46  55 NW3       30.13R
HEREFORD       SUNNY     62  53  73 S8        30.22R
PAMPA          SUNNY     70  52  52 SW12      30.18R
PERRYTON       SUNNY     64  48  56 SW7       30.14S
$$

TXZ026-029-035-045-048-251600-
SOUTHERN PANHANDLE/SOUTH PLAINS/ROLLING PLAINS

CITY           SKY/WX    TMP DP  RH WIND       PRES   REMARKS
CHILDRESS      SUNNY     72  54  53 W7        30.15R
SEMINOLE       SUNNY     62  59  88 SW5       30.23R
LUBBOCK        SUNNY     65  57  75 SW12      30.21R
PLAINVIEW      SUNNY     60  55  82 SW3       30.20R
SNYDER         SUNNY     65  60  84 S5        30.21R
$$

TXZ052-054-060>062-072-078-127-140-154-169-251600-
PERMIAN BASIN/CONCHO VALLEY/BIG COUNTRY/EDWARDS PLATEAU

CITY           SKY/WX    TMP DP  RH WIND       PRES   REMARKS
ABILENE        SUNNY     73  59  61 SW7       30.18R
BIG SPRING     SUNNY     67  60  79 S10       30.23R
BRADY          SUNNY     72  57  60 SW9       30.19S
BROWNWOOD      SUNNY     70  59  68 S3        30.20R
JUNCTION       SUNNY     69  59  70 SW12      30.21R
MIDLAND        SUNNY     69  59  70 S9        30.20R
ODESSA         SUNNY     68  59  73 SW12      30.22R
SAN ANGELO     SUNNY     68  58  70 CALM      30.20R
SONORA         SUNNY     68  59  73 S8        30.26S
SWEETWATER     SUNNY     71  60  69 SW17      30.23R
WINK           SUNNY     66  58  75 S7        30.19R
$$

TXZ055-058-074-075-080-082-251600-
FAR WEST/SOUTHWEST MOUNTAINS/TRANS PECOS

CITY           SKY/WX    TMP DP  RH WIND       PRES   REMARKS
ALPINE         SUNNY     70  52  53 SW5       30.35R
DRYDEN           N/A     68  62  81 CALM      30.19R
EL PASO        SUNNY     61  49  64 N5        30.25R
FORT STOCKTON  SUNNY     71  56  58 S7        30.21R
GUADALUPE PASS SUNNY     60  45  57 SW9       30.34R
MARFA          SUNNY     63  54  72 CALM      30.34R
PECOS          SUNNY     57  56  96 CALM      30.20R FOG
PRESIDIO       FAIR      70  56  60 CALM      30.24R
$$

TXZ014-016-019-021>030-083-251600
TEXAS TECH WEST TEXAS MESONET/TEXAS PANHANDLE/NORTHERN SOUTH PLAINS

CITY           SKY/WX    TMP DP  RH WIND       PRES   REMARKS
ABERNATHY 5ENE   N/A     64  57  79 SW10      30.23R
AMARILLO 9NNE    N/A     69  51  53 S9        30.18R
AMARILLO 7SSE    N/A     65  53  64 SW9       30.21R
AMHERST 1NE      N/A     67  54  62 SW8       30.22R
BOOTLEG 11WNW    N/A     65  48  53 SW12      30.24R
CANADIAN 6E      N/A     62  53  72 NW2       30.12S
CAPROCK CYN SP   N/A     74  52  46 W15       30.17R
CHILDRESS 2NNE   N/A     72  52  49 W5        30.14R
CLARENDON 2WSW   N/A     72  50  46 W9        30.17R
CLAUDE 12SW      N/A     69  51  52 SW5       30.20R
DIMMITT 2NE      N/A     65  49  56 SW13      30.22R
FLOYDADA 2NNE    N/A     63  56  77 SW12      30.21R
FRIONA 2NE       N/A     62  51  67 SW9       30.24R
GOODLETT 3W      N/A     67  54  61 SW6       30.13R
HART 3N          N/A     61  51  70 W6        30.22R
HEREFORD 2NW     N/A     60  49  66 SW6       30.22R
MCLEAN 1E        N/A     73  51  44 W8        30.15R
MEMPHIS 1NE      N/A     64  55  72 SE2       30.14R
MULESHOE 2SSW    N/A     63  51  65 W2        30.23R
OLTON 6S         N/A     62  54  75 W7        30.22R
PALO DURO SP     N/A     72  51  48 SW8       30.21R
PAMPA 2E         N/A     69  53  54 SW10      30.17R
PLAINVIEW 1S     N/A     59  54  83 SW2       30.21R
SILVERTON 7ESE   N/A     66  53  63 SW12      30.20R
TULIA 2ENE       N/A     66  53  62 SW13      30.21R
UMBARGER 3NNE    N/A     64  51  63 SW15      30.22R
$$

TXZ033>036-039>041-045>048-251600
TEXAS TECH WEST TEXAS MESONET/SOUTH PLAINS

CITY           SKY/WX    TMP DP  RH WIND       PRES   REMARKS
AIKEN 3WSW       N/A     60  55  81 SW6       30.23R
ANDREWS 2NE      N/A     68  59  72 S9        30.22
ANTON 6SSW       N/A     64  57  78 SW7       30.22R
BROWNFIELD 2S    N/A     63  58  83 SW8       30.22S
DENVR CTY 7WNW   N/A     63  56  78 S7        30.23R
GAIL 2ESE        N/A     66  60  81 SW6       30.20R
LAMESA 2SE       N/A     64  60  85 S7        30.22S
LEVELLAND 4S     N/A     63  55  74 S7        30.22R
LUBBOCK 3WNW     N/A     66  57  71 SW7       30.22R
MORTON 1ENE      N/A     67  54  64 S7        30.22S
ODONNELL 1N      N/A     62  56  80 SW5       30.22S
PLAINS 3N        N/A     62  56  81 SW5       30.24R
RALLS 1SE        N/A     65  57  77 SW10      30.22R
REESE CENTER     N/A     63  57  80 SW10      30.22R
SEMINOLE 2NNE    N/A     63  58  84 SW3       30.22R
SLATON 2NE       N/A     65  58  76 SW14      30.21R
SNYDER 3E        N/A     66  60  80 S5        30.20R
SUNDOWN 8SW      N/A     65  56  75 SW9       30.23R
TAHOKA 3NNE      N/A     66  59  79 SW8       30.22R
WOLFFORTH 6SSW   N/A     64  60  85 SW8       30.22S
$$

TXZ031-032-036>038-042>044-251600-
TEXAS TECH WEST TEXAS MESONET/ROLLING PLAINS

CITY           SKY/WX    TMP DP  RH WIND       PRES   REMARKS
ASPERMONT 3NE    N/A     70  61  72 SW6       30.17R
GRAHAM 5SSW      N/A     64  57  80 SW7       30.21R
GUTHRIE 10WSW    N/A     72  59  64 SW9       30.16R
HASKELL 1NW      N/A     69  57  65 SW8       30.16R
JAYTON 1SSE      N/A     65  58  77 W8        30.18R
KNOX CITY 3NW    N/A     70  58  65 SW7       30.15R
LK A HENRY 1NW   N/A     71  60  70 SW8       30.18R
NORTHFIELD 1S    N/A     67  55  64 W2        30.15R
ODELL 4ENE       N/A     73  56  56 SW8       30.13R
PADUCAH 10SW     N/A     74  56  53 SW13      30.14R
POST 1NE         N/A     68  58  70 SW10      30.19R
RRING SPRGS 3N   N/A     70  59  67 W12       30.18R
SEYMOUR 3NW      N/A     71  58  64 SW12      30.14R
SPUR 1W          N/A     67  59  74 W7        30.17R
WEINERT 2NNE     N/A     72  60  65 SW7       30.16R
WHITE RVR 6NE    N/A     70  58  67 SW8       30.19R
$$

TXZ052-054-060>062-072-078-127-140-154-169-251600-
TEXAS TECH WEST TEXAS MESONET/PERMIAN BASIN/
CONCHO VALLEY/BIG COUNTRY/EDWARDS PLATEAU

CITY           SKY/WX    TMP DP  RH WIND       PRES   REMARKS
COYANOSA 2N      N/A     68  57  67 S5        30.20R
JUNCTION 1SSW    N/A     69  60  73 SW8       30.21S
MERTZON 3NNE     N/A     70  60  69 S13       30.21R
SAN ANGELO 7NW   N/A     69  58  68 SW3       30.20R
STRLNG CT 4WSW   N/A     71  59  67 S7        30.21S
ST LAWRNCE 5SW   N/A     67  58  72 S10       30.21R
SWEETWATR 11SW   N/A     71  60  69 SW10      30.22R
WALL 1E          N/A     70  58  65 SW9       30.20S
$$

TXZ055-058-074-075-080-082-251600-
TEXAS TECH WEST TEXAS MESONET/FAR WEST/SOUTHWEST MOUNTAINS/TRANS PECOS

CITY           SKY/WX    TMP DP  RH WIND       PRES   REMARKS
PRSMN GAP BBNP   N/A     67  58  71 S1        30.24R
GUADLPE MTN NP   N/A     71  39  31 W6        30.33R
$$